This demonstration page uses our WeatherBlox Daily Observations layout. Learn more.

Left ArrowRight Arrow

Hourly Observations for May 23, 2018

Temp ( °F °C ) Dew Point ( °F °C ) Humidity (%) Winds ( mph kmh ) Pressure ( in mb ) Visibility ( mi km ) Precip ( " mm )
12:51 am 00:51 Clear 71 21.7 21 -6.1 15 15 NW 10 17 29.74 1007 10 16 0.00 0.00
1:51 am 01:51 Clear 71 21.7 22 -5.6 16 16 NW 14 22 29.74 1007 10 16 0.00 0.00
2:51 am 02:51 Clear 69 20.6 24 -4.4 18 18 NW 9 15 29.75 1007 10 16 0.00 0.00
3:51 am 03:51 Clear 62 16.7 22 -5.6 21 21 Calm 29.78 1008 10 16 0.00 0.00
4:51 am 04:51 Clear 63 17.2 23 -5 22 22 NW 5 7 29.79 1009 10 16 0.00 0.00
5:51 am 05:51 Sunny 61 16.1 22 -5.6 22 22 E 6 9 29.81 1010 10 16 0.00 0.00
6:51 am 06:51 Sunny 67 19.4 24 -4.4 20 20 Calm 29.82 1010 10 16 0.00 0.00
7:51 am 07:51 Sunny 73 22.8 25 -3.9 17 17 ENE 3 6 29.83 1010 10 16 0.00 0.00
8:51 am 08:51 Sunny 76 24.4 25 -3.9 15 15 VRB 3 6 29.83 1010 10 16 0.00 0.00
9:51 am 09:51 Sunny 80 26.7 24 -4.4 13 13 SE 6 9 29.83 1010 10 16 0.00 0.00
10:51 am 10:51 Sunny 82 27.8 25 -3.9 12 12 VRB 5 7 29.81 1010 10 16 0.00 0.00
11:51 am 11:51 Sunny 86 30 21 -6.1 9 9 S 7 11 29.79 1009 10 16 0.00 0.00
12:51 pm 12:51 Sunny 87 30.6 25 -3.9 10 10 VRB 5 7 29.77 1008 10 16 0.00 0.00
1:51 pm 13:51 Sunny 91 32.8 23 -5 8 8 SSE 8 13 29.74 1007 10 16 0.00 0.00
2:51 pm 14:51 Sunny 92 33.3 24 -4.4 8 8 S 14 22 29.72 1006 10 16 0.00 0.00
3:51 pm 15:51 Sunny 92 33.3 25 -3.9 9 9 SSE 12 19 29.72 1006 10 16 0.00 0.00
4:51 pm 16:51 Sunny 92 33.3 24 -4.4 8 8 W 5 7 29.71 1006 10 16 0.00 0.00
5:51 pm 17:51 Sunny 92 33.3 22 -5.6 8 8 NNW 3 6 29.70 1006 10 16 0.00 0.00
6:51 pm 18:51 Sunny 90 32.2 22 -5.6 8 8 W 6 9 29.71 1006 10 16 0.00 0.00
7:51 pm 19:51 Clear 86 30 19 -7.2 8 8 NW 13 20 29.73 1007 10 16 0.00 0.00
8:51 pm 20:51 Clear 83 28.3 20 -6.7 10 10 NW 18 30 29.76 1008 10 16 0.00 0.00
9:51 pm 21:51 Clear 80 26.7 20 -6.7 10 10 NW 14 22 29.80 1009 10 16 0.00 0.00
10:51 pm 22:51 Clear 77 25 20 -6.7 12 12 WNW 14 22 29.82 1010 10 16 0.00 0.00
11:51 pm 23:51 Clear 75 23.9 21 -6.1 13 13 WNW 13 20 29.83 1010 10 16 0.00 0.00

Powered by AerisWeather